Weather Roundup
Issued by NWS Corpus Christi, TX

Home | Current Version | Previous Version | Text Only | Print | Product List | Glossary On
Versions: 1 2 3 4 5 6 7 8 9 10 11 12 13 14 15 16 17 18 19 20 21 22 23 24 25 26 27 28 29 30 31 32 33 34 35 36 37 38 39 40 41 42 43 44 45 46 47 48 49 50
022
ASUS44 KCRP 090310
HRRCRP

SOUTH TEXAS REGIONAL WEATHER ROUNDUP
NATIONAL WEATHER SERVICE CORPUS CHRISTI TX
900 PM CST MON FEB 08 2016


TXZ229>244-090400-
...CORPUS CHRISTI AREA OBSERVATIONS...

CITY           SKY/WX    TMP DP  RH WIND       PRES   REMARKS
CORPUS CHRISTI MOCLDY    55  22  27 NW5       30.35R
NAS CORPUS CHR PTCLDY    57  43  59 NW7       30.35R
ROCKPORT       CLOUDY    57  35  43 NW5       30.34R
KINGSVILLE NAS MOCLDY    56  30  37 NW6       30.35R
ALICE            N/A     51  26  37 NW7       30.35R
FALFURRIAS     CLOUDY    55  30  38 CALM      30.35S
$$

...VICTORIA AREA OBSERVATIONS...

CITY           SKY/WX    TMP DP  RH WIND       PRES   REMARKS
VICTORIA       CLEAR     47  27  45 W7        30.33R
BEEVILLE       FAIR      53  25  34 NW6       30.34R
PLEASANTON     CLEAR     46  24  40 NW5       30.37R
SAN ANTONIO    PTCLDY    47  25  42 NW6       30.35R
$$

...LAREDO AREA OBSERVATIONS...

CITY           SKY/WX    TMP DP  RH WIND       PRES   REMARKS
LAREDO         CLEAR     57  21  24 NW8       30.38R
COTULLA        CLEAR     53  21  28 W5        30.37R
DEL RIO        CLEAR     49  21  33 CALM      30.39R
MCALLEN        CLOUDY    56  38  50 CALM      30.37R
HEBBRONVILLE   NOT AVBL
$$

...OTHER TEXAS OBSERVATIONS...

CITY           SKY/WX    TMP DP  RH WIND       PRES   REMARKS
BROWNSVILLE    CLOUDY    52  41  66 CALM      30.36R
HOUSTON        PTCLDY    52  13  21 NW8       30.27S
COL. STATION   CLEAR     45  17  32 W5        30.30R
AUSTIN         CLEAR     43  20  39 W5        30.32R
WACO           CLEAR     38  18  44 W8        30.30S
FORT WORTH     CLEAR     47   9  21 NW12      30.27S
WICHITA FALLS  CLEAR     37   9  31 NW9       30.31R
LUBBOCK        CLEAR     34  16  47 W7        30.38R
EL PASO        CLEAR     50  17  27 SE8       30.32R
$$

...MARINE OBSERVATIONS...

STATION/POSITION TIME  SKY/WX   TEMP    WIND        PRES    VSBY  WAVE   SWELL
                                AIR SEA DIR/SP/G                  HT/PER HT/PER
                 (UTC)          (F)     (DEG/KT/KT) (MB)    (MI)  (FT/S) (FT/S)
PORT ARANSAS     0300            58 59  320/  6/  8 1028.2R
BUOY 90 E PORT A 0250            63 70  320/ 21/ 25 1025.5R         5/ 6
BUOY 45 SE BAFFI 0250            64 69  320/ 10/ 12 1026.7R         4/ 7   3/ 7
BUOY 200 E PT IS 0250                                 N/A           6/ 7
BUOY 15 E GALVES 0250            58 58  310/ 19/ 23 1024.6R         3/ 4
$$




USA.gov is the U.S. government's official web portal to all federal, state and local government web resources and services.